TimeCDT,TemperatureF,Dew PointF,Humidity,Sea Level PressureIn,VisibilityMPH,Wind Direction,Wind SpeedMPH,Gust SpeedMPH,PrecipitationIn,Events,Conditions,WindDirDegrees,DateUTC
12:56 AM,73.9,72.0,93,30.04,10.0,Calm,Calm,-,N/A,,Clear,0,2013-09-12 05:56:00
1:56 AM,73.9,71.1,91,30.03,10.0,Calm,Calm,-,N/A,,Clear,0,2013-09-12 06:56:00
2:56 AM,73.0,71.1,93,30.02,10.0,North,3.5,-,N/A,,Clear,350,2013-09-12 07:56:00
3:56 AM,73.0,71.1,93,30.02,10.0,North,3.5,-,N/A,,Clear,350,2013-09-12 08:56:00
4:56 AM,73.0,71.1,93,30.02,10.0,North,3.5,-,N/A,,Clear,10,2013-09-12 09:56:00
5:56 AM,75.0,73.0,94,30.02,10.0,NNE,5.8,-,N/A,,Mostly Cloudy,30,2013-09-12 10:56:00
6:56 AM,75.0,73.0,94,30.03,10.0,NE,5.8,-,N/A,,Scattered Clouds,50,2013-09-12 11:56:00
7:56 AM,79.0,75.0,88,30.04,10.0,NE,6.9,-,N/A,,Partly Cloudy,40,2013-09-12 12:56:00
8:56 AM,82.0,75.0,79,30.04,10.0,ENE,6.9,-,N/A,,Partly Cloudy,70,2013-09-12 13:56:00
9:56 AM,84.0,73.9,72,30.05,10.0,ENE,6.9,-,N/A,,Partly Cloudy,60,2013-09-12 14:56:00
10:56 AM,86.0,72.0,63,30.05,10.0,East,6.9,-,N/A,,Partly Cloudy,80,2013-09-12 15:56:00
11:56 AM,87.1,72.0,61,30.04,10.0,ENE,6.9,-,N/A,,Partly Cloudy,70,2013-09-12 16:56:00
12:56 PM,87.1,72.0,61,30.02,10.0,SE,9.2,-,N/A,,Scattered Clouds,130,2013-09-12 17:56:00
1:56 PM,88.0,73.0,61,29.99,10.0,SSE,11.5,-,N/A,,Scattered Clouds,160,2013-09-12 18:56:00
2:56 PM,86.0,72.0,63,29.96,10.0,SSE,11.5,-,N/A,,Partly Cloudy,150,2013-09-12 19:56:00
3:56 PM,86.0,71.1,61,29.95,10.0,South,11.5,-,N/A,,Partly Cloudy,170,2013-09-12 20:56:00
4:56 PM,87.1,70.0,57,29.93,10.0,SSE,9.2,-,N/A,,Partly Cloudy,160,2013-09-12 21:56:00
5:56 PM,84.0,70.0,63,29.93,10.0,South,9.2,-,N/A,,Partly Cloudy,190,2013-09-12 22:56:00
6:56 PM,81.0,71.1,72,29.93,10.0,SSW,5.8,-,N/A,,Partly Cloudy,200,2013-09-12 23:56:00
7:56 PM,78.1,71.1,79,29.94,10.0,Calm,Calm,-,N/A,,Partly Cloudy,0,2013-09-13 00:56:00
8:56 PM,77.0,70.0,79,29.95,10.0,Calm,Calm,-,N/A,,Clear,0,2013-09-13 01:56:00
9:56 PM,73.9,71.1,91,29.95,10.0,Calm,Calm,-,N/A,,Clear,0,2013-09-13 02:56:00
10:56 PM,73.9,71.1,91,29.95,10.0,Calm,Calm,-,N/A,,Clear,0,2013-09-13 03:56:00
11:56 PM,73.0,71.1,93,29.95,10.0,Calm,Calm,-,N/A,,Clear,0,2013-09-13 04:56:00